Погода в Кызылорде

Погода в Кызылорде : погода сейчас, прогноз погоды и архив. Всё, что Вы хотите узнать о погоде в Кызылорде!

Хотите узнать прогноз погоды в Кызылорде? Тогда Вам сюда: Погода в Кызылорде

Поиск расширенной информации на нашем сайте:

Другие новости

Новости СМИ2

Главная страница сайта

Новости сайта

03.07.2017

Напоминаем, что на нашем специализированном сайте Метеоцентр.Азия вы можете получить высокодетализированные автоматические прогнозы погоды по пунктам России, СНГ и мира в авиационном формате (включающие направление и скорость ветра, видимость, явления погоды, количество и форму облачности, нижнюю и верхнюю границу облачности).


Погода в Кызылорде - сегодня

Время (UTC), дата Ветер
(°,м/с) 
Видим.   Явления Облачность Т
(°С)
Тd
(°С)
f(%) Тe
(°С)
Pmin
(гПа)
dP
(гПа)
Po
(мм)
O2
(г/м3)
Тmin Tmax R s Состояние
почвы
15 13.01.18 360 (С) н/о    ясно 
-7.7 -11.2 76 -11  1030.1  1.6  760  316    -2.4       
18 13.01.18 010 (С) н/о    4/0 средняя 
[Ac und]
-9.4 -12.4 79 -12  1030.6  0.4  760  318    -2.4       
21 13.01.18 360 (С) н/о    5/0 средняя 
[Ac cast]
-10.4 -12.4 85 -13  1031.2  0.6  761  320           
00 14.01.18 010 (С) н/о    9/0 средняя 
[Ac cast]
-11.3 -13.3 85 -14  1031.5  0.1  761  321           
03 14.01.18 010 (С) 20000 м    10/0 средняя 
[Ac As]
-10.7 -13.5 80 -14  1031.3  761  320        мокрый или
старый снег
50-90% 
06 14.01.18 020 (С) 10 км  слаб. снег  9/0 средняя 
[As trans]
-9.4 -12.9 76 -13  1031.6  0.3  761  319  -11.6         
09 14.01.18 010 (С) 4000 м  слаб. снег  9/0 средняя 
[As trans]
-8.2 -10.5 83 -11  1030.6  -0.9  760  317           
12 14.01.18 010 (С) 4000 м  слаб. снег  10/10 600 м 
[Ns]
-8.6 -11 83 -12  1030.4  -0.2  760  317           
15 14.01.18 020 (С) н/о  {снег}  10/10 600 м 
[Ns]
-10.9 -12.9 85 -15  1031.1  0.6  760  320    -8     
18 14.01.18 360 (С) н/о  {снег}  8/4 1000 м средняя 
[Sc diur, vesp|Ac lent]
-12.9 -14.9 85 -15  1032  0.7  761  323    -8     
21 14.01.18 350 (С) н/о    ясно 
-15.8 -17.7 85 -16  1032.7  0.5  761  327           
00 15.01.18 350 (С) н/о    ясно 
-17 -19.6 80 -19  1033.4  0.7  762  329           
03 15.01.18 360 (С) 20000 м    ясно 
-18.6 -21.2 80 -21  1034.3  0.7  762  331        равномерный
сухой снег
100% 
06 15.01.18 020 (С) 20000 м    ясно 
-15.4 -19.6 70 -18  1035.4  1.2  763  327  -18.9         
09 15.01.18 360 (С) 20000 м    ясно 
-10.3 -15.6 65 -12  1033.7  -1.2  762  321           
12 15.01.18 010 (С) 20000 м    ясно 
-11.9 -16.3 70 -14  1033.9  762  323           
15 15.01.18 020 (С) н/о    ясно 
-14.4 -17.9 75 -18  1033.7  -0.3  762  326    -9.2       
18 15.01.18 020 (С) н/о    ясно 
-16 -18.7 80 -21  1033.3  -0.5  762  328    -9.2       
21 15.01.18 020 (С) н/о    ясно 
-16.8 -19.4 80 -22  1032.4  -0.9  761  328           
00 16.01.18 010 (С) н/о    ясно 
-17.4 -19.3 85 -21  1032.4  -0.2  761  329           
03 16.01.18 020 (С) 20000 м    3/0 верхняя 
[Ci]
-18.6 -20.5 85 -23  1032.8  0.4  761  331        равномерный
сухой снег
100% 
06 16.01.18 010 (С) 20000 м  ледяные иглы  ясно 
-14.1 -17.6 75 -16  1032.7  0.2  761  325  -18.8         
09 16.01.18 010 (С) 20000 м    ясно 
-8.6 -13.4 68 -12  1030.4  -1.9  760  317           
12 16.01.18 360 (С) 20000 м    ясно 
-9.1 -13.6 70 -13  1030.3  -0.1  760  318           
15 16.01.18 010 (С) н/о    ясно 
-12.2 -15.7 75 -16  1030.6  760  322    -7.4       
Время (UTC), дата Ветер
(°,м/с) 
Видим.   Явления Облачность Т
(°С)
Тd
(°С)
f(%) Тe
(°С)
Pmin
(гПа)
dP
(гПа)
Po
(мм)
O2
(г/м3)
Тmin Tmax R s Состояние
почвы

Для получения пояснительной информации подведите курсор к названию столбца.

ПОГОДА в Кызылорде - архив

Всё, что Вы хотите узнать о погоде в Кызылорде - удобно и подробно!

Выберите нужную дату (начиная с 1 января 2015* года) и нажмите кнопку "Найти".
Будут отображены архивные сводки погоды по пункту Кызылорда, начиная с указанной даты.


Отображать данные в формате CSV (для использования в таблицах Excel)


Внимание! Наш архив погоды предназначен исключительно для личного некоммерческого использования в познавательных целях. Если Вам необходимы официальные справки о состоянии погоды (для производственных, юридических, коммерческих и т.п. целей), обращайтесь в органы Росгидромета.

*Примечание: данная дата относится к архиву по метеостанциям СССР (Россия, СНГ, Балтия).
Архив по метеостанциям Зарубежной Европы и Азии (кроме Китая) хранится 10 дней, по другим регионам земного шара (Китай, Африка, Америка, Австралия, Океания) - 1 день.

Кызылорда - район местоположения метеостанции


Название, широта, долгота, высота метеостанции:
Кызылорда (город) 44.8°ш. 65.5°д. 130 м над ур. моря [Казахстан]

Дополнительная информация

В oтличие oт бoльшинства пoгoдных сайтoв мы публикуем пoдрoбную метеoинфoрмацию в детальнoм прoфессиoнальнoм фoрмате.

Характеристики температуры и влажнoсти вoздуха измеряются на высoте 2 м в тени вдали oт зданий и деревьев.
Скoрoсть ветра измеряется на высoте 10 м (на урoвне рoста челoвека скoрoсть ветра ниже в 1.5-2 раза). Если метеoстанция нахoдится в гoрoде или в лесу, тo скoрoсть ветра занижена на 2-4 м/с пo сравнению с oткрытым местoм. Скoрoсть ветра над акватoриями крупных рек и oзёр, а также на вершинах хoлмoв на 2-5 м/с выше, чем в oбычных услoвиях.
Атмoсфернoе давление в разных тoчках местнoсти мoжет значительнo oтличаться oт давления на метеoстанции, в зависимoсти oт услoвий рельефа (при пoдъёме на 10 м давление пoнижается примернo на 1 мм рт.ст.).